STARLINK-11486 [DTC]

Last updated on Fri Jan 31 2025 00:02:04 GMT+0000 (Coordinated Universal Time)

1 62467U 24254F 25030.58106894 .00000961 00000+0 83916-5 0 9990 2 62467 43.0015 134.4937 0002239 269.2733 90.7880 15.77861616 5981
UTC large
Height (km)
Speed (km/s)
/
Latitude / Longitude
Inclination (degrees)
Orbital Period (minutes)
Azimuth
Elevation
Range (km)
Doppler Factor

Next 0 passes for location: London (51.5072 / 0.1276)

Sorry there are no passes over London.